Tracking 26951 objects as of 4-Feb-2023
HD Live streaming from Space Station
objects crossing your sky now

NOAA 16 DEB

Track NOAA 16 DEB now!
10-day predictions


NORAD ID: 41370
Int'l Code: 2000-055JP
Perigee: 705.7 km
Apogee: 823.5 km
Inclination: 99.0 °
Period: 100.0 minutes
Semi major axis: 7135 km
RCS: Unknown
Launch date: September 21, 2000
Source: United States (US)
Launch site: AIR FORCE WESTERN TEST RANGE (AFWTR)

Note: This is SATELLITE DEBRIS
Your satellite tracking list
Your tracking list is empty




NASA's NSSDC Master Catalog

Two Line Element Set (TLE):
1 41370U 00055JP  23034.29516621  .00006109  00000-0  18647-2 0  9993
2 41370  98.9549 220.2529 0082553 344.6102  15.2576 14.40325623375625
Source of the keplerian elements: AFSPC